Weather History for Avoca, PA

Change the Weather History Date:

Monday, October 29, 2012

  Actual Average Record
Temperature  
Mean Temperature 55 °F 47 °F  
Max Temperature 59 °F 56 °F 76 °F (1946)
Min Temperature 50 °F 38 °F 22 °F (1940)
Degree Days  
Heating Degree Days 10 18  
Month to date heating degree days 299 403  
Since 1 July heating degree days 416 565  
Cooling Degree Days 0 0  
Month to date cooling degree days 3 0  
Year to date cooling degree days 864 576  
Growing Degree Days 4 (Base 50)    
Moisture  
Dew Point 48 °F    
Average Humidity 81    
Maximum Humidity 96    
Minimum Humidity 66    
Precipitation  
Precipitation 1.69 in 0.10 in 1.69 in (2012)
Month to date precipitation 5.13 3.15  
Year to date precipitation 32.48 32.25  
Sea Level Pressure  
Sea Level Pressure 29.10 in    
Wind  
Wind Speed 16 mph (NE)    
Max Wind Speed 29 mph    
Max Gust Speed 44 mph    
Visibility 5 miles    
Events Rain    
T = Trace of Precipitation, MM = Missing Value Source: NWS Daily Summary

Daily Weather History Graph

Daily Weather History Graph

Search for Another Location

Airport:

Trip Planner

Search our weather history database for the weather conditions in past years. The results will help you decide how hot, cold, wet, or windy it might be!

Date:

Astronomy

Oct. 29, 2012 Rise Set
Actual Time 7:31 AM EDT 6:01 PM EDT
Civil Twilight 7:02 AM EDT 6:29 PM EDT
Nautical Twilight 6:30 AM EDT 7:02 PM EDT
Astronomical Twilight 5:58 AM EDT 7:34 PM EDT
Moon 5:51 PM EDT (10/29) 7:19 AM EDT (10/29)
Length of Visible Light 11h 27m
Length of Day
10h 29m
Full, 100% of the Moon is Illuminated
Oct 29
Full
Oct 29
Full
Nov 6
Last Quarter
Nov 13
New
Nov 20
First Quarter

Hourly Weather History & Observations

Time (EDT) Temp. Dew Point Humidity Pressure Visibility Wind Dir Wind Speed Gust Speed Precip Events Conditions
12:11 AM 51.8 °F 42.8 °F 71% 29.71 in 10.0 mi NE 8.1 mph - N/A   Overcast
12:54 AM 52.0 °F 43.0 °F 71% 29.70 in 10.0 mi NNE 6.9 mph - N/A   Overcast
1:54 AM 52.0 °F 43.0 °F 71% 29.67 in 10.0 mi NNE 8.1 mph - N/A   Overcast
2:16 AM 53.6 °F 44.6 °F 72% 29.67 in 10.0 mi NE 13.8 mph - N/A   Overcast
2:46 AM 53.6 °F 42.8 °F 67% 29.66 in 10.0 mi NE 8.1 mph - N/A   Overcast
2:54 AM 53.1 °F 43.0 °F 69% 29.65 in 10.0 mi NNE 8.1 mph - N/A   Overcast
3:54 AM 52.0 °F 43.0 °F 71% 29.63 in 10.0 mi NE 9.2 mph - N/A   Overcast
4:54 AM 52.0 °F 44.1 °F 74% 29.62 in 10.0 mi NNE 9.2 mph - N/A   Overcast
5:54 AM 52.0 °F 43.0 °F 71% 29.57 in 10.0 mi NNE 12.7 mph - N/A   Overcast
6:54 AM 52.0 °F 43.0 °F 71% 29.55 in 10.0 mi NNE 10.4 mph 23.0 mph N/A   Overcast
7:54 AM 52.0 °F 43.0 °F 71% 29.53 in 10.0 mi NNE 11.5 mph 21.9 mph N/A   Overcast
8:54 AM 52.0 °F 44.1 °F 74% 29.51 in 10.0 mi NNE 12.7 mph - 0.00 in Rain Light Rain
9:54 AM 52.0 °F 44.1 °F 74% 29.46 in 10.0 mi NNE 18.4 mph 24.2 mph 0.00 in   Overcast
10:54 AM 52.0 °F 44.1 °F 74% 29.39 in 10.0 mi NNE 18.4 mph 28.8 mph 0.00 in   Overcast
11:54 AM 51.1 °F 45.0 °F 80% 29.33 in 10.0 mi NNE 13.8 mph 27.6 mph 0.01 in Rain Light Rain
12:54 PM 51.1 °F 46.0 °F 83% 29.24 in 2.5 mi NNE 19.6 mph 35.7 mph 0.01 in Rain Light Rain
1:14 PM 51.8 °F 46.4 °F 82% 29.23 in 4.0 mi NNE 20.7 mph 33.4 mph 0.02 in Rain Light Rain
1:33 PM 51.8 °F 46.4 °F 82% 29.21 in 2.5 mi NNE 23.0 mph 29.9 mph 0.04 in Rain Rain
1:54 PM 51.1 °F 46.9 °F 86% 29.17 in 1.8 mi NNE 24.2 mph 32.2 mph 0.08 in Rain Heavy Rain
2:04 PM 51.8 °F 46.4 °F 82% 29.17 in 2.0 mi NNE 17.3 mph 27.6 mph 0.03 in Rain Heavy Rain
2:15 PM 51.8 °F 46.4 °F 82% 29.15 in 1.8 mi NE 16.1 mph 26.5 mph 0.08 in Rain Heavy Rain
2:30 PM 50.0 °F 48.2 °F 94% 29.12 in 2.0 mi NE 18.4 mph 26.5 mph 0.14 in Rain Rain
2:54 PM 50.0 °F 48.0 °F 93% 29.08 in 1.2 mi NE 15.0 mph 25.3 mph 0.26 in Rain Heavy Rain
3:14 PM 51.8 °F 48.2 °F 88% 29.06 in 2.0 mi NE 19.6 mph 33.4 mph 0.06 in Rain Rain
3:22 PM 51.8 °F 48.2 °F 88% 29.05 in 1.8 mi NNE 24.2 mph 36.8 mph 0.10 in Rain Rain
3:54 PM 52.0 °F 48.9 °F 89% 29.00 in 1.2 mi NE 17.3 mph 32.2 mph 0.28 in Rain Heavy Rain
4:51 PM 53.6 °F 50.0 °F 88% 28.92 in 0.8 mi NNE 18.4 mph 33.4 mph 0.29 in Rain Heavy Rain
4:54 PM 52.0 °F 50.0 °F 93% 28.91 in 0.8 mi NE 17.3 mph 29.9 mph 0.32 in Rain Heavy Rain
5:02 PM 53.6 °F 50.0 °F 88% 28.90 in 1.0 mi NNE 19.6 mph 26.5 mph 0.06 in Rain Heavy Rain
5:31 PM 53.6 °F 51.8 °F 94% 28.86 in 1.0 mi NNE 18.4 mph 25.3 mph 0.23 in Rain Heavy Rain
5:49 PM 53.6 °F 51.8 °F 94% 28.84 in 1.5 mi NE 20.7 mph 33.4 mph 0.32 in Rain Heavy Rain
5:54 PM 53.1 °F 51.1 °F 93% 28.82 in 1.8 mi NE 20.7 mph 33.4 mph 0.34 in Rain Heavy Rain
5:56 PM 53.6 °F 51.8 °F 94% 28.83 in 1.8 mi NNE 20.7 mph 33.4 mph 0.01 in Rain Heavy Rain
5:59 PM 53.6 °F 51.8 °F 94% 28.82 in 2.0 mi NNE 17.3 mph 33.4 mph 0.02 in Rain Rain
6:28 PM 53.6 °F 51.8 °F 94% 28.78 in 3.0 mi NNE 21.9 mph 35.7 mph 0.07 in Rain Light Rain
6:54 PM 55.0 °F 51.1 °F 86% 28.74 in 3.0 mi NE 25.3 mph 35.7 mph 0.10 in Rain Rain
7:18 PM 55.4 °F 51.8 °F 88% 28.74 in 2.5 mi NNE 24.2 mph 33.4 mph 0.03 in Rain Rain
7:26 PM 55.4 °F 51.8 °F 88% 28.74 in 3.0 mi NNE 23.0 mph 33.4 mph 0.04 in Rain Light Rain
7:54 PM 57.0 °F 53.1 °F 87% 28.70 in 4.0 mi NNE 23.0 mph 34.5 mph 0.05 in Rain Light Rain
8:54 PM 59.0 °F 54.0 °F 83% 28.69 in 4.0 mi NE 19.6 mph 40.3 mph 0.06 in Rain Light Rain
9:51 PM 57.2 °F 53.6 °F 88% 28.71 in 2.5 mi ENE 12.7 mph 23.0 mph 0.10 in Rain Heavy Rain
9:54 PM 57.9 °F 53.1 °F 84% 28.69 in 2.5 mi ENE 18.4 mph 31.1 mph 0.11 in Rain Light Rain
10:02 PM 57.2 °F 51.8 °F 82% 28.70 in 3.0 mi ENE 20.7 mph 33.4 mph 0.02 in Rain Rain
10:09 PM 57.2 °F 51.8 °F 82% 28.70 in 6.0 mi ENE 18.4 mph 36.8 mph 0.02 in Rain Light Rain
10:16 PM 57.2 °F 51.8 °F 82% 28.70 in 6.0 mi ENE 23.0 mph 40.3 mph 0.02 in Rain Light Rain
10:54 PM 55.9 °F 50.0 °F 80% 28.72 in 3.0 mi ENE 13.8 mph 29.9 mph 0.05 in Rain Light Rain
11:18 PM 55.4 °F 48.2 °F 77% 28.74 in 9.0 mi East 15.0 mph 33.4 mph 0.00 in Rain Light Rain
11:51 PM 55.4 °F 46.4 °F 72% 28.76 in 8.0 mi East 15.0 mph 33.4 mph 0.00 in Rain Light Rain
11:54 PM 55.0 °F 46.9 °F 74% 28.76 in 8.0 mi ENE 12.7 mph 32.2 mph 0.00 in Rain Light Rain